Regional Weather Roundup
Issued by NWS

Home | Current Version | Previous Version | Graphics & Text | Print | Product List | Glossary On
Versions: 1 2 3 4 5 6 7 8 9 10 11 12 13 14 15 16 17 18 19 20 21 22 23 24 25 26 27 28 29 30 31 32 33 34 35 36 37 38 39 40 41 42 43 44 45 46 47 48 49 50
000
ASUS43 KDMX 011508
RWRIA

WEATHER ROUNDUP FOR IOWA
NATIONAL WEATHER SERVICE DES MOINES IA
1000 AM CDT SUN MAY 01 2016

NOTE: "FAIR" INDICATES FEW OR NO CLOUDS BELOW 12,000 FEET WITH NO
SIGNIFICANT WEATHER AND/OR OBSTRUCTIONS TO VISIBILITY.

* - THESE STATIONS ARE NOT NWS STATIONS...THUS NOT UNDER NWS
QUALITY CONTROL.  THEY ALSO DO NOT REPORT WEATHER SUCH
AS PRECIPITATION OR FOG.

IAZ001>003-012>014-020>022-031>034-043>046-011600-
   NORTHWEST IOWA

CITY           SKY/WX    TMP DP  RH WIND       PRES   REMARKS
CARROLL *      LGT RAIN  43  43 100 NE20      30.05R
CHEROKEE *     LGT RAIN  43  43 100 NE13      30.11R
DENISON *      CLOUDY    43  41  93 NE18      30.05R FOG
LE MARS *      MIX PCPN  45  41  87 NE13G20   30.14R
ORANGE CITY *  DRIZZLE   43  37  81 N13       30.13R
SHELDON *      MOSUNNY   43  39  87 N16       30.12R
SIOUX CITY     LGT RAIN  45  41  86 N12       30.13R
SPENCER        CLOUDY    43  37  79 NE20      30.12R
STORM LAKE *   LGT RAIN  43  41  93 NE18      30.09R
$$

IAZ055>058-069>071-079>083-090>094-011600-
   SOUTHWEST IOWA

CITY           SKY/WX    TMP DP  RH WIND       PRES   REMARKS
ATLANTIC *     CLOUDY    45  45 100 NE12      30.02R FOG
AUDUBON *      CLOUDY    43  41  93 NE14      30.04R FOG
CLARINDA *       N/A    N/A N/A N/A MISG        N/A
COUNCIL BLFS * LGT RAIN  45  45 100 N12       30.04R
CRESTON *      CLOUDY    45  43  93 NE13G18   30.00R
HARLAN  *      LGT RAIN  45  43  93 NE14G21   30.07R
LAMONI         LGT RAIN  45  45 100 N9        29.98R FOG
RED OAK *      CLOUDY    46  45  93 NE9       30.02R
SHENANDOAH *   CLOUDY    46  46 100 N10       30.02R
$$

IAZ047>049-059>061-072>074-084-011600-
   CENTRAL IOWA

CITY           SKY/WX    TMP DP  RH WIND       PRES   REMARKS
AMES           CLOUDY    44  42  93 NE10G20   30.03R
ANKENY *       CLOUDY    45  45 100 NE10      30.02R
BOONE *        PTSUNNY   43  43 100 NE18G24   30.02S FOG
CHARITON *     CLOUDY    46  46 100 NE10      29.98S
DES MOINES     DRIZZLE   46  43  89 NE13      30.00S
GRINNELL*      CLOUDY    45  43  93 NE16      30.01R FOG
KNOXVILLE *    CLOUDY    46  45  93 NE9       29.98S FOG
MARSHALLTOWN   CLOUDY    45  43  93 NE15      30.02R FOG
NEWTON *       CLOUDY    45  45 100 NE10G17   30.00S FOG
PELLA *        CLOUDY    46  45  93 NE5       30.00F FOG
$$

IAZ004>006-015-016-023>025-035-036-011600-
   NORTH CENTRAL IOWA

CITY           SKY/WX    TMP DP  RH WIND       PRES   REMARKS
ALGONA *       CLOUDY    45  41  87 NE16G24   30.09R
CLARION *      PTSUNNY   45  43  93 NE17      30.07R FOG
ESTHERVILLE    CLOUDY    42  38  85 N16       30.12R
FORT DODGE *   CLOUDY    43  39  87 NE14      30.07R
MASON CITY     CLOUDY    45  40  82 NE21      30.09R
FOREST CITY *  CLOUDY    45  39  81 NE14      30.08S
WEBSTER CITY * MIX PCPN  43  43 100 NE14G20   30.04S VSB 1
IOWA FALLS *   CLOUDY    45  41  87 NE9       30.05S
$$

IAZ007>011-017>019-026>030-037>042-050>054-066-011600-
   NORTHEAST IOWA

CITY           SKY/WX    TMP DP  RH WIND       PRES   REMARKS
CEDAR RAPIDS   CLOUDY    45  45 100 NE14      29.99R
CHARLES CITY * CLOUDY    45  43  93 NE15G24   30.07R
CLINTON *      CLOUDY    46  45  96 E16       30.00S
DECORAH *      CLOUDY    46  41  81 NE9       30.05F
DUBUQUE        CLOUDY    44  42  93 NE13      30.02R
MONTICELLO *   CLOUDY    46  43  87 NE13      30.01S
OELWEIN *      CLOUDY    45  43  93 NE17G24   30.03S
WATERLOO       CLOUDY    45  40  82 NE16      30.04R
$$

IAZ064-065-067-068-078-011600-
   EAST CENTRAL IOWA

CITY           SKY/WX    TMP DP  RH WIND       PRES   REMARKS
DAVENPORT      CLOUDY    46  45  93 NE14      29.99S FOG
IOWA CITY      CLOUDY    47  45  93 E8        30.01R
MT. PLEASANT * CLOUDY    50  50 100 NE8       29.97S FOG
MUSCATINE *    CLOUDY    48  46  93 NE10      29.99S
QUAD CITIES    CLOUDY    49  45  86 NE10      29.97S
$$

IAZ062-063-075>077-085>089-095>099-011600-
   SOUTHEAST IOWA

CITY           SKY/WX    TMP DP  RH WIND       PRES   REMARKS
BURLINGTON     CLOUDY    49  48  97 NE8       29.96S
FAIRFIELD *    CLOUDY    46  46 100 E8        29.98S FOG
FORT MADISON * CLOUDY    48  48 100 E5        29.97R FOG
KEOKUK *       CLOUDY    50  50 100 NE7       29.95S
OSKALOOSA *    CLOUDY    46  45  93 E9        29.99S FOG
OTTUMWA        CLOUDY    46  45  96 NE9       29.97F FOG
WASHINGTON *   CLOUDY    46  46 100 NE14      29.99S FOG
$$

ABBREVIATIONS USED IN REMARKS
   TC - TEMPERATURES IN CELSIUS
  WCI - WIND CHILL INDEX
   HX - HEAT INDEX
  VSB - VISIBILITY
$$





USA.gov is the U.S. government's official web portal to all federal, state and local government web resources and services.